Weather Roundup
Issued by NWS Chicago, IL

Home | Current Version | Previous Version | Graphics & Text | Print | Product List | Glossary On
Versions: 1 2 3 4 5 6 7 8 9 10 11 12 13 14 15 16 17 18 19 20 21 22 23 24 25 26 27 28 29 30 31 32 33 34 35 36 37 38 39 40 41 42 43 44 45 46 47 48 49 50
000
NZUS59 KLOT 211906
HRRLOT

CHICAGO AREA WEATHER ROUNDUP
NATIONAL WEATHER SERVICE CHICAGO/ROMEOVILLE IL
200 PM CDT SUN SEP 21 2014

NOTE: "FAIR" INDICATES FEW OR NO CLOUDS BELOW 12,000 FEET WITH NO
SIGNIFICANT WEATHER AND/OR OBSTRUCTIONS TO VISIBILITY.

* THESE STATIONS ARE NOT UNDER NWS QUALITY CONTROL. THEY ALSO MAY NOT
  REPORT WEATHER SUCH AS PRECIPITATION OR FOG.

ILZ005-006-012>014-019>023-212000-
NORTHEAST ILLINOIS

CITY           SKY/WX    TMP DP  RH WIND       PRES   REMARKS
OHARE          CLOUDY    66  50  56 NW16      29.94R
MIDWAY         PTSUNNY   67  53  61 NW13      29.94R
AURORA         PTSUNNY   66  51  58 NW17G24   29.97R
LANSING*       HVY RAIN  60  52  74 N9G22     29.95R
JOLIET*        PTSUNNY   65  49  57 NW6       29.96F
WAUKEGAN       CLOUDY    63  50  62 N9G18     29.93R
DUPAGE AIRPORT CLOUDY    63  50  62 NW16      29.96R
WHEELING       CLOUDY    65  51  60 NW14G22   29.95R
KANKAKEE*      CLOUDY    63  51  66 NW12G20   29.97R
MORRIS*        PTSUNNY   68  52  57 NW9G16    29.96S
LEWIS AIRPORT* PTSUNNY   64  51  61 N17       29.96R
NORTHERLY IS     N/A     61  50  67 N13         N/A
$$

WIZ051-052-058>065-066-070>072-212000-
SOUTHEAST WISCONSIN

CITY           SKY/WX    TMP DP  RH WIND       PRES   REMARKS
MILWAUKEE      PTSUNNY   61  50  67 NW15G29   29.94R
KENOSHA*       CLOUDY    64  49  57 NW13G23   29.94R
RACINE*        CLOUDY    63  51  65 N13       29.95R
BURLINGTON     CLOUDY    65  48  54 NW16      29.94S
WAUKESHA       PTSUNNY   57  52  82 N12G20    29.96R
WEST BEND      PTSUNNY   57  50  77 NW15G25   29.96R
$$

INZ001>003-010>013-019-020-212000-
NORTHWEST INDIANA

CITY           SKY/WX    TMP DP  RH WIND       PRES   REMARKS
GARY*          RAIN      63  52  67 NW17G29   29.95R
MICHIGAN CITY* NOT AVBL
RENSSELAER*    NOT AVBL
VALPARAISO     CLOUDY    63  50  62 NW15G28   29.93R
$$

LMZ740>746-212000-
SOUTHERN LAKE MICHIGAN

STATION/POSITION TIME  SKY/WX   TEMP WIND        PRES    VSBY
                                AIR  DIR/SP/G
                 (UTC)          (F)  (DEG/KT/KT) (MB)    (MI)
HARRISON CRIB    1900            61  340/ 18/ 21   N/A
BURNHAM HARBOR   1900            61  350/ 10/ 19   N/A
CALUMET HARBOR   1900            62  330/  6/ 10 1012.8R
BURNS HARBOR     NOT AVBL
MICHIGAN CITY    1900            59  290/ 23/ 27   N/A
$$

ABBREVIATIONS USED IN REMARKS
   TC - TEMPERATURE IN CELSIUS
  WCI - WIND CHILL INDEX
   HX - HEAT INDEX
  VSB - VISIBILITY
$$



USA.gov is the U.S. government's official web portal to all federal, state and local government web resources and services.